Regional Weather Roundup
Issued by NWS Spokane, WA

Home | Current Version | Previous Version | Text Only | Print | Product List | Glossary On
Versions: 1 2 3 4 5 6 7 8 9 10 11 12 13 14 15 16 17 18 19 20 21 22 23 24 25 26 27 28 29 30 31 32 33 34 35 36 37 38 39 40 41 42 43 44 45 46 47 48 49 50
444
NZUS01 KOTX 280410
RWROTX
EASTERN WASHINGTON/NORTHERN IDAHO ROUNDUP
NATIONAL WEATHER SERVICE, SPOKANE WA
900 PM PDT FRI MAY 27 2016

Note: "fair" indicated few or no clouds below 12,000 feet with no
significant weather and/or obstructions to visibility.

...NORTHEAST WASHINGTON AND NORTHERN IDAHO PANHANDLE...

CITY           SKY/WX    TMP DP  RH WIND       PRES   REMARKS
SPOKANE INTL   MOCLDY    55  30  38 S8        29.97R
SPOKANE DOWNTO PTCLDY    57  33  40 SW9       29.97S
COEUR D ALENE  MOCLDY    54  36  50 SE7       29.96R
DEER PARK      CLOUDY    54  33  45 S6        29.97R
SANDPOINT      MOCLDY    48  46  93 CALM      29.98R
BONNERS FERRY  CLOUDY    46  41  81 N14       30.00R

...SOUTHEAST WASHINGTON AND SOUTHERN IDAHO PANHANDLE...

CITY           SKY/WX    TMP DP  RH WIND       PRES   REMARKS
WALLA WALLA    PTCLDY    58  37  45 W12       30.01R
PULLMAN/MOSCOW MOCLDY    51  34  52 SW3       30.03R
LEWISTON       MOCLDY    57  37  47 S3        30.01S
LOWELL           N/A     51  45  79 N3        30.03R

...COLUMBIA BASIN...

CITY           SKY/WX    TMP DP  RH WIND       PRES   REMARKS
EPHRATA        CLEAR     57  29  34 NW17G24   29.96S
MOSES LAKE     CLEAR     58  27  30 W8        29.97S
TRI CITIES     PTCLDY    57  36  45 NW9       30.01R
HERMISTON      PTCLDY    59  39  47 SW15G23   30.01R
PENDLETON      PTCLDY    55  35  47 W17       30.03R

...EAST SLOPES CASCADES...

CITY           SKY/WX    TMP DP  RH WIND       PRES   REMARKS
THE DALLES     PTCLDY    58  39  49 NW15      30.10R
YAKIMA         PTCLDY    58  33  39 W12       30.03S
ELLENSBURG     PTCLDY    52  36  54 NW21G29   30.04R
STAMPEDE PASS  FOG       37  35  92 VRB6      30.07S VSB 1/4
WENATCHEE      PTCLDY    56  31  38 NW13      29.99R
OMAK           MOCLDY    59  27  29 NW13      29.93R

...SOUTHERN BRITISH COLUMBIA...

CITY           SKY/WX    TMP DP  RH WIND       PRES   REMARKS
PENTICTON      MOCLDY    55  37  50 NE7       29.97R
CASTLEGAR      LGT RAIN  50  46  87 VRB2      29.98R

...WESTERN MONTANA...

CITY           SKY/WX    TMP DP  RH WIND       PRES   REMARKS
MISSOULA       PTCLDY    47  36  65 NW3       30.00R

...NEIGHBORING CITIES...

CITY           SKY/WX    TMP DP  RH WIND       PRES   REMARKS
SEATTLE        MOCLDY    56  42  59 W8        30.13R
CALGARY        MOCLDY    46  41  81 NE8       29.85R



USA.gov is the U.S. government's official web portal to all federal, state and local government web resources and services.